DM7LA-WX Weather Reports


Display with metric or nautical units.
time (UTC)temp
F
wind
direction
speed
MPH
gust
MPH
rain 1hr
in
rain 24hr
in
rain mn
in
humidity
%
barometer
mb
20260905105801 64 292 0.0 0.0 0.00 2.79 0.15 71 1011.0
20260905095801 62 292 0.0 0.0 0.00 2.81 0.15 72 1010.3
20260905085801 60 315 0.0 0.0 0.03 2.82 0.15 85 1009.5
20260905075802 61 270 0.0 0.0 0.01 2.78 0.11 80 1008.9
20260905065801 59 315 0.0 0.0 0.05 2.77 0.10 85 1008.5
20260905055802 63 270 0.0 0.0 0.02 2.71 0.04 76 1007.5
20260905045802 63 315 0.0 0.0 0.00 2.79 0.02 74 1007.5
20260905035801 63 247 0.0 0.0 0.00 2.87 0.02 72 1007.2
20260905025802 63 315 0.0 0.0 0.00 2.90 0.02 73 1007.3
20260905015801 62 270 0.0 0.0 0.02 2.91 0.02 77 1006.7
20260905005802 62 292 0.0 0.0 0.00 3.02 0.00 73 1006.5
20260904235801 62 315 0.0 0.0 0.02 3.02 1.75 76 1006.4
20260904225801 58 315 0.0 0.0 0.04 3.03 1.73 83 1006.4
20260904215801 64 270 0.0 0.0 0.00 2.99 1.68 71 1005.9
20260904205802 64 315 0.0 0.0 0.00 2.99 1.68 71 1005.3
20260904195801 64 292 0.0 0.0 0.00 2.99 1.68 71 1004.7
20260904185801 64 315 0.0 0.0 0.00 3.01 1.68 73 1004.5
20260904175801 63 292 0.0 0.0 0.00 3.01 1.68 72 1003.7
20260904165801 64 315 0.0 0.0 0.00 3.01 1.68 75 1002.9
20260904155802 64 292 0.0 0.0 0.00 3.01 1.68 76 1002.0
20260904145802 64 270 0.0 0.0 0.01 3.01 1.68 83 1001.4
20260904135802 63 292 0.0 0.0 0.01 2.99 1.67 94 1000.6
20260904125802 63 247 0.0 0.0 0.01 3.01 1.66 95 1000.3
20260904115801 62 225 0.0 0.0 0.01 3.00 1.65 95 1000.2